Change the Weather History Date:

Tuesday, June 10, 2014

  Actual Average (KPAH) Record (KPAH)
Temperature  
Mean Temperature 70 °F 74 °F  
Max Temperature 75 °F 85 °F 98 °F (1953)
Min Temperature 64 °F 64 °F 50 °F (1988)
Degree Days  
Heating Degree Days 0 0  
Month to date heating degree days 0  
Since 1 June heating degree days 0  
Since 1 July heating degree days 4128  
Cooling Degree Days 4 9  
Month to date cooling degree days 82  
Year to date cooling degree days 254  
Since 1 June cooling degree days 82  
Growing Degree Days 20 (Base 50)    
Moisture  
Dew Point 66 °F    
Average Humidity 91    
Maximum Humidity 100    
Minimum Humidity 78    
Precipitation  
Precipitation 0.00 in 0.13 in 2.07 in (1959)
Month to date precipitation 1.37  
Year to date precipitation 22.59  
Snow  
Snow 0.00 in 0.00 in 0.00 in (2002)
Month to date snowfall 0.0  
Since 1 June snowfall 0.0  
Since 1 July snowfall 9.1  
Snow Depth -    
Sea Level Pressure  
Sea Level Pressure 29.78 in    
Wind  
Wind Speed 7 mph (South)    
Max Wind Speed 16 mph    
Max Gust Speed 24 mph    
Visibility 10 miles    
Events Rain    
T = Trace of Precipitation, MM = Missing Value Source: NWS Daily Summary

Daily Weather History Graph

Daily Weather History Graph

Search for Another Location

Airport or City:

Trip Planner

Search our weather history database for the weather conditions in past years. The results will help you decide how hot, cold, wet, or windy it might be!

Date:

Astronomy

Jun. 10, 2014 Rise Set
Actual Time 5:34 AM CDT 8:12 PM CDT
Civil Twilight 5:04 AM CDT 8:43 PM CDT
Nautical Twilight 4:26 AM CDT 9:21 PM CDT
Astronomical Twilight 3:44 AM CDT 10:03 PM CDT
Moon 5:41 PM CDT (6/10) 3:36 AM CDT (6/10)
Length of Visible Light 15h 39m
Length of Day
14h 37m
Waxing Gibbous, 92% of the Moon is Illuminated
Jun 10
Waxing Gibbous
Jun 12
Full
Jun 19
Last Quarter
Jun 27
New
Jul 5
First Quarter

Hourly Weather History & Observations

Time (CDT) Temp. Dew Point Humidity Pressure Visibility Wind Dir Wind Speed Gust Speed Precip Events Conditions
12:15 AM 68.0 °F 66.2 °F 94% 29.81 in 10.0 mi SE 4.6 mph - N/A   Overcast
12:35 AM 68.0 °F 66.2 °F 94% 29.81 in 10.0 mi South 3.5 mph - N/A   Mostly Cloudy
12:55 AM 68.0 °F 66.2 °F 94% 29.80 in 10.0 mi South 6.9 mph - N/A   Scattered Clouds
1:15 AM 66.2 °F 66.2 °F 100% 29.79 in 10.0 mi South 6.9 mph - N/A   Overcast
1:35 AM 66.2 °F 66.2 °F 100% 29.79 in 10.0 mi South 6.9 mph - N/A   Overcast
1:55 AM 68.0 °F 66.2 °F 94% 29.79 in 10.0 mi South 9.2 mph - N/A   Overcast
2:15 AM 68.0 °F 66.2 °F 94% 29.80 in 10.0 mi South 6.9 mph 16.1 mph N/A   Overcast
2:35 AM 68.0 °F 66.2 °F 94% 29.80 in 10.0 mi South 8.1 mph - N/A   Overcast
2:55 AM 68.0 °F 66.2 °F 94% 29.80 in 10.0 mi South 8.1 mph - N/A   Overcast
3:15 AM 68.0 °F 66.2 °F 94% 29.80 in 10.0 mi South 8.1 mph - N/A   Overcast
3:35 AM 68.0 °F 66.2 °F 94% 29.80 in 10.0 mi South 9.2 mph - N/A   Overcast
3:55 AM 68.0 °F 66.2 °F 94% 29.80 in 10.0 mi SSW 9.2 mph - N/A   Overcast
4:15 AM 68.0 °F 66.2 °F 94% 29.80 in 10.0 mi South 8.1 mph - N/A   Overcast
4:35 AM 68.0 °F 66.2 °F 94% 29.80 in 10.0 mi South 8.1 mph - N/A Rain Light Rain
4:55 AM 68.0 °F 66.2 °F 94% 29.79 in 7.0 mi South 9.2 mph - N/A   Overcast
5:15 AM 68.0 °F 66.2 °F 94% 29.78 in 10.0 mi South 6.9 mph - N/A   Overcast
5:35 AM 68.0 °F 66.2 °F 94% 29.79 in 10.0 mi South 8.1 mph - N/A   Overcast
5:55 AM 68.0 °F 66.2 °F 94% 29.80 in 10.0 mi South 8.1 mph - N/A   Overcast
6:15 AM 68.0 °F 64.4 °F 88% 29.80 in 10.0 mi SSW 9.2 mph 16.1 mph N/A   Overcast
6:35 AM 68.0 °F 64.4 °F 88% 29.80 in 10.0 mi SSW 9.2 mph 16.1 mph N/A   Overcast
6:55 AM 68.0 °F 64.4 °F 88% 29.80 in 10.0 mi SSW 10.4 mph 18.4 mph N/A   Overcast
7:15 AM 68.0 °F 64.4 °F 88% 29.80 in 10.0 mi SSW 8.1 mph - N/A   Overcast
7:35 AM 68.0 °F 66.2 °F 94% 29.80 in 10.0 mi SSW 6.9 mph - N/A   Overcast
7:55 AM 68.0 °F 66.2 °F 94% 29.80 in 10.0 mi South 8.1 mph - N/A   Overcast
8:35 AM 68.0 °F 66.2 °F 94% 29.81 in 10.0 mi South 10.4 mph - N/A   Overcast
8:55 AM 68.0 °F 66.2 °F 94% 29.82 in 10.0 mi SSW 9.2 mph - N/A   Overcast
9:15 AM 69.8 °F 66.2 °F 88% 29.81 in 10.0 mi South 4.6 mph - N/A   Overcast
9:35 AM 69.8 °F 68.0 °F 94% 29.82 in 10.0 mi South 5.8 mph - N/A   Overcast
9:55 AM 69.8 °F 66.2 °F 88% 29.82 in 7.0 mi South 5.8 mph - N/A Rain Rain
10:15 AM 68.0 °F 68.0 °F 100% 29.81 in 10.0 mi South 6.9 mph - N/A Rain Light Rain
10:35 AM 69.8 °F 68.0 °F 94% 29.81 in 10.0 mi South 6.9 mph - N/A   Overcast
10:55 AM 68.0 °F 68.0 °F 100% 29.81 in 10.0 mi South 6.9 mph - N/A Rain Rain
11:35 AM 69.8 °F 68.0 °F 94% 29.80 in 10.0 mi SSE 6.9 mph - N/A Rain Light Rain
11:55 AM 69.8 °F 68.0 °F 94% 29.82 in 10.0 mi South 8.1 mph 16.1 mph N/A   Overcast
12:15 PM 69.8 °F 68.0 °F 94% 29.81 in 10.0 mi South 5.8 mph - N/A   Overcast
12:35 PM 71.6 °F 68.0 °F 88% 29.80 in 10.0 mi South 8.1 mph - N/A   Overcast
12:55 PM 73.4 °F 68.0 °F 83% 29.80 in 10.0 mi South 10.4 mph - N/A   Mostly Cloudy
1:15 PM 71.6 °F 68.0 °F 88% 29.79 in 10.0 mi South 10.4 mph - N/A   Mostly Cloudy
1:35 PM 73.4 °F 66.2 °F 78% 29.78 in 10.0 mi SSE 5.8 mph - N/A   Mostly Cloudy
1:55 PM 73.4 °F 66.2 °F 78% 29.77 in 10.0 mi South 9.2 mph - N/A   Overcast
2:15 PM 73.4 °F 68.0 °F 83% 29.76 in 10.0 mi South 10.4 mph - N/A   Overcast
2:35 PM 73.4 °F 66.2 °F 78% 29.76 in 10.0 mi South 8.1 mph 16.1 mph N/A   Overcast
2:55 PM 71.6 °F 66.2 °F 83% 29.75 in 10.0 mi South 13.8 mph 21.9 mph N/A   Overcast
3:15 PM 73.4 °F 66.2 °F 78% 29.74 in 10.0 mi South 16.1 mph 21.9 mph N/A   Overcast
3:35 PM 73.4 °F 66.2 °F 78% 29.74 in 10.0 mi SSW 13.8 mph 18.4 mph N/A   Overcast
3:55 PM 71.6 °F 66.2 °F 83% 29.74 in 10.0 mi SSW 16.1 mph 24.2 mph N/A   Overcast
4:35 PM 73.4 °F 66.2 °F 78% 29.74 in 10.0 mi SW 12.7 mph - N/A   Overcast
4:55 PM 75.2 °F 68.0 °F 78% 29.74 in 10.0 mi SW 13.8 mph 17.3 mph N/A   Overcast
5:15 PM 73.4 °F 68.0 °F 83% 29.74 in 10.0 mi SSW 6.9 mph - N/A   Overcast
5:35 PM 71.6 °F 68.0 °F 88% 29.74 in 10.0 mi SSW 6.9 mph - N/A   Overcast
5:55 PM 71.6 °F 68.0 °F 88% 29.74 in 7.0 mi SW 12.7 mph 20.7 mph N/A Rain Rain
6:15 PM 69.8 °F 66.2 °F 88% 29.74 in 10.0 mi SSW 5.8 mph - N/A   Scattered Clouds
6:35 PM 71.6 °F 68.0 °F 88% 29.74 in 10.0 mi SSW 5.8 mph - N/A   Scattered Clouds
6:55 PM 71.6 °F 68.0 °F 88% 29.73 in 10.0 mi SSW 3.5 mph - N/A   Scattered Clouds
7:15 PM 71.6 °F 68.0 °F 88% 29.73 in 10.0 mi South 4.6 mph - N/A   Clear
7:35 PM 71.6 °F 68.0 °F 88% 29.74 in 10.0 mi SSW 8.1 mph - N/A   Scattered Clouds
7:55 PM 64.4 °F 62.6 °F 94% 29.76 in 7.0 mi SSW 8.1 mph - N/A Rain Light Rain
8:15 PM 64.4 °F 62.6 °F 94% 29.75 in 10.0 mi SW 4.6 mph - N/A   Mostly Cloudy
8:35 PM 64.4 °F 64.4 °F 100% 29.74 in 10.0 mi SW 3.5 mph - N/A   Mostly Cloudy
8:55 PM 64.4 °F 64.4 °F 100% 29.74 in 10.0 mi South 3.5 mph - N/A   Mostly Cloudy
9:15 PM 64.4 °F 64.4 °F 100% 29.74 in 10.0 mi Calm Calm - N/A   Mostly Cloudy
9:55 PM 64.4 °F 64.4 °F 100% 29.75 in 10.0 mi South 4.6 mph - N/A   Light Drizzle
10:15 PM 64.4 °F 64.4 °F 100% 29.75 in 10.0 mi South 4.6 mph - N/A Rain Light Rain
10:35 PM 64.4 °F 62.6 °F 94% 29.76 in 10.0 mi South 4.6 mph - N/A   Overcast
10:55 PM 64.4 °F 64.4 °F 100% 29.76 in 10.0 mi South 4.6 mph - N/A   Overcast
11:15 PM 64.4 °F 64.4 °F 100% 29.75 in 10.0 mi Calm Calm - N/A   Mostly Cloudy
11:35 PM 64.4 °F 64.4 °F 100% 29.75 in 10.0 mi SSE 4.6 mph - N/A   Clear
11:55 PM 64.4 °F 64.4 °F 100% 29.75 in 10.0 mi Calm Calm - N/A   Scattered Clouds